Regional Weather Roundup
Issued by NWS

Current Version | Previous Version | Text Only | Print | Product List | Glossary On
Versions: 1 2 3 4 5 6 7 8 9 10 11 12 13 14 15 16 17 18 19 20 21 22 23 24 25 26 27 28 29 30 31 32 33 34 35 36 37 38 39 40 41 42 43 44 45 46 47 48 49 50
000
ASUS43 KBIS 310759
RWRND

NORTH DAKOTA REGIONAL WEATHER ROUNDUP
NATIONAL WEATHER SERVICE BISMARCK ND
300 AM CDT FRI OCT 31 2014

NOTE: "FAIR" INDICATES FEW OR NO CLOUDS BELOW 12,000 FEET WITH NO
SIGNIFICANT WEATHER AND/OR OBSTRUCTIONS TO VISIBILITY.


NDZ001>003-009>011-017-310900-
NORTHWEST NORTH DAKOTA

CITY           SKY/WX    TMP DP  RH WIND       PRES   REMARKS
WILLISTON      CLOUDY    30  23  75 SE13G20   30.45F WCI  20
MINOT          PTCLDY    15  11  83 SE6       30.55S WCI   6
$$

NDZ018>021-031>035-040>046-310900-
SOUTHWEST NORTH DAKOTA

CITY           SKY/WX    TMP DP  RH WIND       PRES   REMARKS
BISMARCK       PTCLDY    19  17  92 NE6       30.59S WCI  11
DICKINSON      CLOUDY    29  24  82 SE17      30.46F WCI  17
GARRISON         N/A     21  18  88 SE7       30.53F WCI  12
HETTINGER ARPT CLOUDY    29  24  82 SE15      30.50S WCI  18
$$

NDZ004>008-012>016-024-026-027-054-310900-
NORTHEAST NORTH DAKOTA

CITY           SKY/WX    TMP DP  RH WIND       PRES   REMARKS
GRAND FORKS    CLEAR     17  13  84 NW6       30.61R WCI   9
DEVILS LAKE    PTCLDY    18   9  68 CALM      30.56S
$$

NDZ022-023-025-028>030-036>039-047>053-310900-
SOUTHEAST NORTH DAKOTA

CITY           SKY/WX    TMP DP  RH WIND       PRES   REMARKS
FARGO          CLEAR     20  16  84 NW8       30.60R WCI  10
$$




USA.gov is the U.S. government's official web portal to all federal, state and local government web resources and services.